SR6WXJG Weather Reports


Display with metric or nautical units.
time (UTC)temp
F
wind
direction
speed
MPH
gust
MPH
rain 1hr
in
rain 24hr
in
rain mn
in
humidity
%
barometer
mb
20260507213710 50 296 5.0 12.0 0.00 0.00 0.00 91 1017.0
20260507212210 51 281 6.0 12.0 0.00 0.00 0.00 87 1017.0
20260507210710 51 281 6.0 12.0 0.00 0.00 0.00 87 1016.0
20260507205209 51 281 6.0 12.0 0.00 0.00 0.00 91 1016.0
20260507203709 51 281 6.0 12.0 0.00 0.00 0.00 91 1016.0
20260507202208 52 293 5.0 14.0 0.00 0.00 0.00 86 1016.0
20260507200708 52 293 5.0 14.0 0.00 0.00 0.00 86 1016.0
20260507195208 52 293 5.0 14.0 0.00 0.00 0.00 90 1016.0
20260507193707 52 293 5.0 14.0 0.00 0.00 0.00 89 1016.0
20260507192207 53 299 7.0 15.0 0.00 0.00 0.00 84 1015.0
20260507190706 53 299 7.0 15.0 0.00 0.00 0.00 86 1015.0
20260507185206 53 299 7.0 15.0 0.00 0.00 0.00 86 1015.0
20260507183706 53 311 5.0 12.0 0.00 0.00 0.00 86 1015.0
20260507182205 54 302 7.0 13.0 0.00 0.00 0.00 78 1014.0
20260507180705 55 302 7.0 13.0 0.00 0.00 0.00 80 1014.0
20260507175205 55 302 7.0 13.0 0.00 0.00 0.00 80 1014.0
20260507173704 55 302 7.0 13.0 0.00 0.00 0.00 80 1013.0
20260507172204 56 277 8.0 14.0 0.00 0.00 0.00 72 1013.0
20260507170704 56 277 8.0 14.0 0.00 0.00 0.00 70 1013.0
20260507165203 57 277 8.0 14.0 0.00 0.00 0.00 73 1013.0
20260507163703 57 277 8.0 14.0 0.00 0.00 0.00 73 1013.0
20260507162202 57 273 9.0 14.0 0.00 0.00 0.00 66 1012.0
20260507160702 57 273 9.0 14.0 0.00 0.00 0.00 67 1013.0
20260507155202 59 273 9.0 14.0 0.00 0.00 0.00 71 1012.0
20260507153701 59 273 9.0 14.0 0.00 0.00 0.00 71 1012.0
20260507152201 59 262 10.0 12.0 0.00 0.00 0.00 65 1012.0
20260507150701 59 262 10.0 12.0 0.00 0.00 0.00 64 1012.0
20260507145200 61 262 10.0 12.0 0.00 0.00 0.00 66 1012.0
20260507143700 61 262 10.0 12.0 0.00 0.00 0.00 66 1012.0
20260507142159 60 262 10.0 13.0 0.00 0.00 0.00 61 1012.0
20260507140659 60 262 10.0 13.0 0.00 0.00 0.00 61 1012.0
20260507135159 61 262 10.0 13.0 0.00 0.00 0.00 60 1012.0
20260507133659 61 262 10.0 13.0 0.00 0.00 0.00 59 1012.0
20260507132158 60 274 11.0 14.0 0.00 0.00 0.00 60 1012.0
20260507130658 61 274 11.0 14.0 0.00 0.00 0.00 61 1012.0
20260507125158 61 274 11.0 14.0 0.00 0.00 0.00 61 1012.0
20260507123657 61 268 12.0 16.0 0.00 0.00 0.00 61 1012.0
20260507122157 60 266 13.0 15.0 0.00 0.00 0.00 62 1012.0
20260507120656 61 266 13.0 15.0 0.00 0.00 0.00 62 1012.0
20260507115156 61 266 13.0 15.0 0.00 0.00 0.00 62 1012.0
20260507113656 61 266 13.0 15.0 0.00 0.00 0.00 62 1012.0
20260507112155 60 260 12.0 14.0 0.00 0.00 0.00 65 1012.0
20260507110655 62 260 12.0 14.0 0.00 0.00 0.00 65 1012.0
20260507105155 62 260 12.0 14.0 0.00 0.00 0.00 65 1012.0
20260507103654 62 260 12.0 14.0 0.00 0.00 0.00 65 1011.0
20260507102154 60 256 12.0 14.0 0.00 0.00 0.00 66 1012.0
20260507100654 60 256 12.0 14.0 0.00 0.00 0.00 68 1012.0
20260507095153 61 256 12.0 14.0 0.00 0.00 0.00 66 1011.0
20260507093653 61 256 12.0 14.0 0.00 0.00 0.00 66 1011.0
20260507092153 59 245 11.0 14.0 0.00 0.00 0.00 70 1011.0
20260507090652 59 245 11.0 14.0 0.00 0.00 0.00 72 1011.0
20260507085152 60 245 11.0 14.0 0.00 0.00 0.00 71 1011.0
20260507083651 60 245 11.0 14.0 0.00 0.00 0.00 72 1011.0
20260507082151 57 250 11.0 15.0 0.00 0.00 0.00 77 1011.0
20260507080650 57 250 11.0 15.0 0.00 0.00 0.00 77 1011.0
20260507075150 58 250 11.0 15.0 0.00 0.00 0.00 77 1011.0
20260507073650 58 250 11.0 15.0 0.00 0.00 0.00 78 1011.0
20260507072149 56 249 11.0 16.0 0.00 0.00 0.00 81 1011.0
20260507070649 56 249 11.0 16.0 0.00 0.00 0.00 83 1011.0
20260507065149 56 249 11.0 16.0 0.00 0.00 0.00 85 1011.0
20260507063648 56 247 11.0 17.0 0.00 0.00 0.00 85 1011.0
20260507062148 55 241 10.0 18.0 0.00 0.00 0.00 87 1010.0
20260507060647 55 241 10.0 18.0 0.00 0.00 0.00 89 1010.0
20260507055147 54 241 10.0 18.0 0.00 0.00 0.00 89 1010.0
20260507053647 54 241 10.0 18.0 0.00 0.00 0.00 89 1010.0
20260507052146 53 236 9.0 20.0 0.00 0.00 0.00 91 1010.0
20260507050646 53 236 9.0 20.0 0.00 0.00 0.00 92 1009.0
20260507045145 53 236 9.0 20.0 0.00 0.00 0.00 92 1009.0
20260507043645 53 236 9.0 20.0 0.00 0.00 0.00 92 1009.0
20260507042145 52 233 9.0 22.0 0.00 0.00 0.00 93 1009.0
20260507040644 52 233 9.0 22.0 0.00 0.00 0.00 93 1009.0
20260507035144 52 233 9.0 22.0 0.00 0.00 0.00 93 1009.0
20260507033643 52 233 9.0 22.0 0.00 0.00 0.00 93 1009.0
20260507032143 52 235 9.0 22.0 0.00 0.00 0.00 93 1009.0
20260507030643 52 235 9.0 22.0 0.00 0.00 0.00 93 1009.0
20260507025142 52 235 9.0 22.0 0.00 0.00 0.00 93 1009.0
20260507023642 52 235 9.0 22.0 0.00 0.00 0.00 93 1009.0
20260507022142 53 241 8.0 20.0 0.00 0.00 0.00 93 1009.0
20260507020641 53 241 8.0 20.0 0.00 0.00 0.00 93 1008.0
20260507015141 53 241 8.0 20.0 0.00 0.00 0.00 93 1008.0
20260507013641 53 241 8.0 20.0 0.00 0.00 0.00 93 1008.0
20260507012140 54 239 7.0 17.0 0.00 0.00 0.00 93 1008.0
20260507010640 54 239 7.0 17.0 0.00 0.00 0.00 93 1008.0
20260507005140 54 256 7.0 17.0 0.00 0.00 0.00 93 1008.0
20260507003639 54 256 7.0 17.0 0.00 0.00 0.00 93 1008.0
20260507002139 55 281 9.0 16.0 0.00 0.00 0.00 93 1007.0
20260507000639 55 281 9.0 16.0 0.00 0.00 0.00 94 1007.0
20260506235138 55 281 9.0 16.0 0.00 0.00 0.00 94 1007.0
20260506233638 55 281 9.0 16.0 0.00 0.00 0.00 94 1007.0
20260506232138 56 267 14.0 22.0 0.00 0.00 0.00 92 1007.0
20260506230637 56 267 14.0 22.0 0.00 0.00 0.00 92 1007.0
20260506225137 56 267 14.0 22.0 0.00 0.00 0.00 93 1007.0
20260506223636 56 267 14.0 22.0 0.00 0.00 0.00 93 1007.0
20260506222136 57 302 5.0 8.0 0.00 0.00 0.00 91 1006.0
20260506220635 57 302 5.0 8.0 0.01 0.00 0.00 91 1006.0
20260506215135 57 302 5.0 8.0 0.00 0.00 0.00 93 1006.0